D7023 Weather Reports


time (UTC)temp
C
wind
direction
speed
KPH
gust
KPH
rain 1hr
cm
rain 24hr
cm
rain mn
cm
humidity
%
barometer
mb
20260508200544 22 130 3.2 9.7 0.05 0.28 0.28 99 1006.8
20260508200043 22 134 3.2 9.7 0.05 0.28 0.28 99 1006.8
20260508195542 22 129 1.6 8.0 0.05 0.28 0.28 98 1006.6
20260508195042 22 173 0.0 4.8 0.08 0.28 0.28 98 1006.8
20260508194539 22 130 0.0 3.2 0.10 0.28 0.28 98 1007.0
20260508194035 22 130 1.6 3.2 0.13 0.28 0.28 98 1006.6
20260508193756 22 129 1.6 3.2 0.13 0.28 0.28 98 1006.4
20260508193258 22 129 1.6 6.4 0.13 0.28 0.28 97 1006.6
20260508192528 22 129 1.6 6.4 0.13 0.28 0.28 97 1006.8
20260508192028 22 129 1.6 4.8 0.10 0.25 0.25 97 1006.9
20260508191744 22 130 1.6 4.8 0.10 0.25 0.25 96 1006.9
20260508191242 22 130 0.0 4.8 0.10 0.25 0.25 96 1006.6
20260508190456 23 141 0.0 0.0 0.08 0.23 0.23 95 1006.5
20260508185926 23 141 0.0 0.0 0.08 0.23 0.23 95 1006.9
20260508185649 23 141 0.0 1.6 0.05 0.20 0.23 94 1007.1
20260508184923 23 141 0.0 1.6 0.03 0.18 0.20 94 1007.2
20260508184639 23 141 0.0 3.2 0.03 0.18 0.18 94 1007.3
20260508183916 23 141 0.0 3.2 0.00 0.15 0.15 93 1007.3
20260508183417 23 151 0.0 1.6 0.00 0.15 0.15 93 1007.3
20260508182917 23 151 0.0 1.6 0.00 0.15 0.15 93 1007.1
20260508182414 23 151 0.0 1.6 0.00 0.15 0.15 93 1007.2
20260508181914 23 151 0.0 1.6 0.00 0.15 0.15 93 1007.1
20260508181415 23 151 0.0 3.2 0.00 0.15 0.15 93 1007.3
20260508181127 23 151 0.0 3.2 0.00 0.15 0.15 93 1007.4
20260508180408 23 154 0.0 3.2 0.00 0.15 0.15 93 1007.6
20260508175903 23 154 0.0 3.2 0.00 0.15 0.15 92 1007.6
20260508175405 23 123 0.0 1.6 0.00 0.15 0.15 93 1007.5
20260508174902 23 118 0.0 3.2 0.00 0.15 0.15 93 1007.5
20260508174359 23 118 1.6 6.4 0.00 0.15 0.15 92 1007.4
20260508173901 23 166 3.2 8.0 0.00 0.15 0.15 92 1007.2
20260508173400 23 214 1.6 8.0 0.00 0.15 0.15 93 1007.1
20260508172859 23 223 0.0 0.0 0.00 0.15 0.15 94 1006.8
20260508172400 23 223 0.0 0.0 0.00 0.15 0.15 94 1006.8
20260508171859 23 223 0.0 0.0 0.00 0.15 0.15 93 1006.8
20260508171358 23 223 0.0 0.0 0.00 0.15 0.15 93 1006.8
20260508170856 23 224 0.0 0.0 0.00 0.15 0.15 94 1006.7
20260508170354 23 223 0.0 0.0 0.00 0.15 0.15 93 1006.5
20260508165853 23 223 0.0 0.0 0.00 0.15 0.15 92 1006.3
20260508165351 23 223 0.0 0.0 0.00 0.15 0.15 92 1006.4
20260508165111 23 222 0.0 4.8 0.00 0.15 0.15 92 1006.6
20260508164343 23 223 1.6 4.8 0.00 0.15 0.15 92 1006.6
20260508163840 23 184 0.0 4.8 0.00 0.15 0.15 92 1006.4
20260508163341 23 0 0.0 0.0 0.00 0.15 0.15 94 1006.2
20260508162835 23 0 0.0 3.2 0.00 0.15 0.15 94 1006.4
20260508162336 23 0 1.6 6.4 0.00 0.15 0.15 93 1006.6
20260508162022 23 0 1.6 6.4 0.00 0.15 0.15 93 1006.8
20260508161230 23 134 0.0 3.2 0.00 0.15 0.15 93 1007.3
20260508160704 23 25 0.0 3.2 0.00 0.15 0.15 94 1007.3
20260508160139 23 25 0.0 1.6 0.00 0.15 0.15 93 1007.4
20260508155829 23 105 0.0 1.6 0.00 0.15 0.15 93 1007.5
20260508155042 23 118 0.0 0.0 0.00 0.15 0.15 94 1007.4
20260508154518 23 120 0.0 0.0 0.00 0.15 0.15 95 1007.2
20260508153949 23 120 0.0 0.0 0.00 0.15 0.15 95 1007.1
20260508153422 23 120 0.0 0.0 0.00 0.15 0.15 95 1006.9
20260508152856 23 120 0.0 0.0 0.00 0.15 0.15 95 1006.8
20260508152331 23 120 0.0 0.0 0.00 0.15 0.15 95 1007.0
20260508151808 23 121 0.0 3.2 0.00 0.15 0.15 94 1006.9
20260508151303 23 120 0.0 3.2 0.00 0.15 0.15 95 1006.7
20260508150802 23 119 0.0 1.6 0.00 0.15 0.15 95 1006.8
20260508150258 23 119 0.0 1.6 0.00 0.15 0.15 95 1006.7
20260508150249 23 126 1.6 6.4 0.00 0.15 0.15 95 1006.8
20260508145306 22 126 3.2 8.0 0.03 0.15 0.15 95 1006.8
20260508145020 22 189 1.6 8.0 0.03 0.15 0.15 95 1007.1
20260508144253 22 144 0.0 1.6 0.03 0.15 0.15 96 1006.8
20260508143750 22 126 0.0 3.2 0.03 0.15 0.15 97 1006.9
20260508143251 22 126 0.0 3.2 0.03 0.15 0.15 96 1007.1
20260508143021 22 129 0.0 3.2 0.05 0.15 0.15 97 1007.3
20260508142244 22 139 0.0 3.2 0.05 0.15 0.15 97 1007.3
20260508141747 22 127 0.0 3.2 0.08 0.15 0.15 96 1007.4
20260508141246 22 155 0.0 3.2 0.08 0.15 0.15 97 1007.3
20260508140725 22 164 0.0 3.2 0.08 0.15 0.15 97 1007.1
20260508140231 22 164 0.0 0.0 0.08 0.15 0.15 97 1007.0
20260508140146 22 164 0.0 0.0 0.13 0.15 0.15 96 1007.2
20260508135135 22 164 0.0 3.2 0.10 0.13 0.13 97 1007.1
20260508134830 22 164 0.0 3.2 0.10 0.13 0.13 96 1007.4
20260508134106 22 165 0.0 3.2 0.13 0.13 0.13 96 1007.5
20260508133833 22 165 0.0 1.6 0.13 0.13 0.13 95 1007.5
20260508133104 23 165 0.0 1.6 0.13 0.13 0.13 95 1007.6
20260508132603 23 165 0.0 1.6 0.10 0.10 0.10 94 1007.6
20260508132102 23 165 0.0 3.2 0.10 0.10 0.10 93 1007.5
20260508131604 23 165 0.0 3.2 0.08 0.08 0.08 92 1007.3
20260508131056 23 166 0.0 3.2 0.08 0.08 0.08 92 1007.3
20260508130554 23 166 0.0 3.2 0.08 0.08 0.08 91 1007.9
20260508130052 23 218 1.6 3.2 0.05 0.05 0.05 90 1008.2
20260508125550 24 219 1.6 6.4 0.03 0.03 0.03 89 1008.2
20260508125051 24 214 1.6 6.4 0.03 0.03 0.03 88 1007.9
20260508124552 24 131 1.6 4.8 0.03 0.03 0.03 87 1007.3
20260508124053 24 58 1.6 8.0 0.00 0.00 0.00 87 1007.3
20260508123526 24 81 1.6 8.0 0.00 0.00 0.00 86 1007.6
20260508123027 24 57 1.6 6.4 0.00 0.00 0.00 86 1008.1
20260508122525 24 44 0.0 6.4 0.00 0.00 0.00 89 1007.9
20260508122026 24 42 0.0 4.8 0.00 0.00 0.00 90 1007.8
20260508121525 24 41 0.0 6.4 0.00 0.00 0.00 93 1007.7
20260508121023 24 42 1.6 6.4 0.00 0.00 0.00 94 1007.6
20260508120522 24 46 0.0 6.4 0.00 0.00 0.00 94 1007.6
20260508120023 24 50 0.0 1.6 0.00 0.00 0.00 95 1007.7
20260508115520 24 50 0.0 3.2 0.00 0.00 0.00 95 1007.9
20260508115022 24 49 0.0 4.8 0.00 0.00 0.00 95 1007.8
20260508114519 23 50 0.0 4.8 0.00 0.00 0.00 95 1008.0
20260508114018 23 131 0.0 0.0 0.00 0.00 0.00 96 1007.9
20260508113523 23 131 0.0 0.0 0.00 0.00 0.00 97 1007.7
20260508113227 23 137 0.0 0.0 0.00 0.00 0.00 98 1007.7
20260508113114 23 137 0.0 0.0 0.00 0.00 0.00 97 1007.5
20260508111956 23 137 0.0 0.0 0.00 0.00 0.00 98 1007.7
20260508111455 23 137 0.0 0.0 0.00 0.00 0.00 98 1007.6
20260508110953 23 137 0.0 0.0 0.00 0.00 0.00 98 1007.5
20260508110448 23 137 0.0 0.0 0.00 0.00 0.00 98 1007.3
20260508105948 23 137 0.0 0.0 0.00 0.00 0.00 98 1007.3
20260508105447 23 137 0.0 0.0 0.00 0.00 0.00 98 1007.6
20260508104944 23 137 0.0 0.0 0.00 0.00 0.00 98 1007.8
20260508104714 23 137 0.0 0.0 0.00 0.00 0.00 98 1007.7
20260508103940 23 158 0.0 0.0 0.00 0.00 0.00 98 1007.7
20260508103441 23 157 0.0 0.0 0.00 0.00 0.00 98 1007.7
20260508102936 23 158 0.0 0.0 0.00 0.00 0.00 98 1007.7
20260508102435 23 158 0.0 0.0 0.00 0.00 0.00 98 1007.5
20260508101934 23 158 0.0 1.6 0.00 0.00 0.00 98 1007.4
20260508101427 23 158 1.6 8.0 0.00 0.00 0.00 98 1007.3
20260508100926 23 154 1.6 8.0 0.00 0.00 0.00 99 1007.5
20260508100422 23 187 0.0 4.8 0.00 0.00 0.00 99 1007.4
20260508100151 23 129 0.0 3.2 0.00 0.00 0.00 99 1007.2
20260508095401 23 126 0.0 3.2 0.00 0.00 0.00 99 1007.1
20260508094859 23 191 0.0 0.0 0.00 0.00 0.00 99 1006.9
20260508094357 23 191 0.0 0.0 0.00 0.00 0.00 99 1006.6
20260508094117 23 191 0.0 0.0 0.00 0.00 0.00 99 1006.6
20260508093354 23 191 0.0 0.0 0.00 0.00 0.00 99 1006.6
20260508092851 23 191 0.0 0.0 0.00 0.00 0.00 99 1006.5
20260508092349 23 191 0.0 0.0 0.00 0.00 0.00 99 1006.5
20260508092112 23 191 0.0 0.0 0.00 0.00 0.00 99 1006.4
20260508091346 23 191 0.0 0.0 0.00 0.00 0.00 99 1006.3
20260508091114 23 191 0.0 0.0 0.00 0.00 0.00 99 1006.2
20260508090340 23 191 0.0 0.0 0.00 0.00 0.00 99 1006.2
20260508085838 23 191 0.0 0.0 0.00 0.00 0.00 99 1006.3
20260508085335 23 191 0.0 3.2 0.00 0.00 0.00 99 1006.2
20260508084838 23 191 0.0 3.2 0.00 0.00 0.00 99 1006.1
20260508084321 23 191 0.0 1.6 0.00 0.00 0.00 99 1006.0
20260508083819 23 129 0.0 0.0 0.00 0.00 0.00 99 1005.9
20260508083314 23 129 0.0 0.0 0.00 0.00 0.00 99 1005.9
20260508083041 23 129 0.0 3.2 0.00 0.00 0.00 99 1005.8
20260508082533 23 129 0.0 4.8 0.00 0.00 0.00 99 1005.5
20260508081813 23 129 0.0 4.8 0.00 0.00 0.00 99 1005.2
20260508081312 23 323 0.0 4.8 0.00 0.00 0.00 99 1004.9
20260508080812 23 323 0.0 4.8 0.00 0.00 0.00 99 1004.7
20260508080309 23 312 0.0 4.8 0.00 0.00 0.00 99 1004.6
20260508075806 23 312 1.6 6.4 0.00 0.00 0.00 99 1004.6
20260508075309 23 312 0.0 6.4 0.00 0.00 0.00 100 1004.6
20260508075029 23 346 0.0 0.0 0.00 0.00 0.00 100 1004.7
20260508074525 23 346 0.0 0.0 0.00 0.00 0.00 100 1004.6
20260508073758 23 350 0.0 0.0 0.00 0.00 0.00 100 1004.4
20260508073302 22 141 0.0 0.0 0.00 0.00 0.00 100 1004.6
20260508072758 22 140 0.0 1.6 0.00 0.00 0.00 100 1004.8
20260508072252 22 162 0.0 3.2 0.00 0.00 0.00 100 1004.9
20260508071758 22 195 1.6 4.8 0.00 0.00 0.00 100 1005.1
20260508071230 22 206 1.6 4.8 0.00 0.00 0.00 100 1005.3
20260508070930 22 130 1.6 8.0 0.00 0.00 0.00 100 1005.4
20260508070613 22 85 0.0 3.2 0.00 0.00 0.00 100 1005.7
20260508065606 22 85 0.0 3.2 0.00 0.00 0.00 100 1005.7
20260508065039 23 85 0.0 1.6 0.00 0.00 0.00 100 1005.7
20260508064516 23 85 0.0 0.0 0.00 0.00 0.00 100 1005.8
20260508063949 23 85 0.0 0.0 0.00 0.00 0.00 100 1005.8
20260508063912 23 85 0.0 0.0 0.00 0.00 0.00 100 1005.9
20260508062856 23 85 0.0 0.0 0.00 0.00 0.00 100 1006.0
20260508062330 23 85 0.0 0.0 0.00 0.00 0.00 100 1006.1
20260508061758 23 85 0.0 0.0 0.00 0.00 0.00 100 1006.1
20260508061238 23 85 0.0 1.6 0.00 0.00 0.00 100 1006.2
20260508060742 23 85 0.0 1.6 0.00 0.00 0.00 100 1006.2
20260508060214 23 85 0.0 3.2 0.00 0.00 0.00 100 1006.3
20260508055647 23 85 0.0 3.2 0.00 0.00 0.00 100 1006.4
20260508055119 23 80 0.0 3.2 0.00 0.00 0.00 100 1006.6
20260508054606 23 191 0.0 1.6 0.00 0.00 0.00 100 1006.7
20260508054110 23 191 0.0 1.6 0.00 0.00 0.00 100 1006.7
20260508053543 23 191 0.0 1.6 0.00 0.00 0.00 100 1006.7
20260508053022 23 199 0.0 3.2 0.00 0.00 0.00 100 1006.7
20260508052452 23 199 0.0 3.2 0.00 0.00 0.00 100 1006.7
20260508051926 23 199 0.0 3.2 0.00 0.00 0.00 100 1006.7
20260508051401 23 199 0.0 3.2 0.00 0.00 0.00 100 1006.7
20260508050832 23 199 0.0 3.2 0.00 0.00 0.00 100 1006.8
20260508050307 23 214 0.0 3.2 0.00 0.00 0.00 100 1006.9
20260508045740 23 214 1.6 3.2 0.00 0.00 0.00 100 1006.9
20260508045223 23 209 1.6 3.2 0.00 0.00 0.00 100 1006.9
20260508044722 23 209 1.6 3.2 0.00 0.00 0.00 100 1006.9
20260508044222 23 209 1.6 3.2 0.00 0.00 0.00 100 1006.8
20260508043723 23 248 0.0 3.2 0.00 0.00 0.00 100 1006.8
20260508043223 23 102 0.0 0.0 0.00 0.00 0.00 100 1006.8
20260508042716 23 102 0.0 0.0 0.00 0.00 0.00 100 1006.8
20260508042214 23 102 0.0 0.0 0.00 0.00 0.00 100 1006.9
20260508041711 23 101 0.0 0.0 0.00 0.00 0.00 100 1006.9
20260508041207 23 101 0.0 0.0 0.00 0.00 0.00 100 1006.9
20260508040706 23 101 0.0 0.0 0.00 0.00 0.00 100 1006.9
20260508040205 23 101 0.0 0.0 0.00 0.00 0.00 100 1007.0
20260508035700 23 101 0.0 0.0 0.00 0.00 0.00 100 1007.1
20260508035157 23 101 0.0 0.0 0.00 0.00 0.00 100 1007.2
20260508034653 23 101 0.0 0.0 0.00 0.00 0.00 100 1007.2
20260508034156 23 101 0.0 0.0 0.00 0.00 0.00 100 1007.2
20260508033646 23 101 0.0 1.6 0.00 0.00 0.00 100 1007.3
20260508033142 23 101 0.0 3.2 0.00 0.00 0.00 100 1007.4
20260508032642 23 101 1.6 4.8 0.00 0.00 0.00 100 1007.6
20260508032139 23 101 1.6 4.8 0.00 0.00 0.00 100 1007.6
20260508031638 23 101 1.6 4.8 0.00 0.00 0.00 99 1007.6
20260508031139 23 101 1.6 4.8 0.00 0.00 0.00 99 1007.6
20260508030636 23 44 0.0 3.2 0.00 0.00 0.00 99 1007.6
20260508030135 23 44 0.0 1.6 0.00 0.00 0.00 99 1007.7
20260508025627 23 44 0.0 1.6 0.00 0.00 0.00 99 1007.8
20260508025130 23 44 0.0 1.6 0.00 0.00 0.00 99 1007.9
20260508024625 23 44 0.0 0.0 0.00 0.00 0.00 99 1007.9
20260508024126 23 44 0.0 0.0 0.00 0.00 0.00 98 1008.0
20260508023623 23 44 0.0 1.6 0.00 0.00 0.00 98 1008.0
20260508023116 23 44 0.0 1.6 0.00 0.00 0.00 98 1008.1
20260508022615 23 44 0.0 4.8 0.00 0.00 0.00 98 1008.0
20260508022118 23 44 0.0 4.8 0.00 0.00 0.00 98 1008.1
20260508021840 23 42 0.0 3.2 0.00 0.00 0.00 98 1008.1
20260508021044 23 132 0.0 3.2 0.00 0.00 0.00 98 1008.1
20260508020748 23 131 0.0 6.4 0.00 0.00 0.00 98 1008.2
20260508020030 23 131 1.6 6.4 0.00 0.00 0.00 97 1008.1
20260508015501 23 121 1.6 4.8 0.00 0.00 0.00 97 1008.2
20260508014940 23 140 0.0 4.8 0.00 0.00 0.00 97 1008.1
20260508014440 23 140 0.0 1.6 0.00 0.00 0.00 97 1008.1
20260508014158 23 140 0.0 4.8 0.00 0.00 0.00 97 1008.0
20260508013428 23 140 1.6 4.8 0.00 0.00 0.00 97 1007.9
20260508012926 24 39 0.0 3.2 0.00 0.00 0.00 96 1007.9
20260508012424 24 15 0.0 3.2 0.00 0.00 0.00 96 1007.9
20260508011926 24 15 0.0 3.2 0.00 0.00 0.00 96 1007.9
20260508011424 24 15 0.0 0.0 0.00 0.00 0.00 96 1007.9
20260508010922 24 15 0.0 0.0 0.00 0.00 0.00 96 1007.9
20260508010418 24 15 0.0 0.0 0.00 0.00 0.00 96 1007.9
20260508010142 24 15 0.0 3.2 0.00 0.00 0.00 96 1008.0
20260508005420 24 15 1.6 6.4 0.00 0.00 0.00 96 1008.1
20260508004918 24 21 1.6 6.4 0.00 0.00 0.00 96 1008.2
20260508004415 24 350 0.0 3.2 0.00 0.00 0.00 96 1008.2
20260508003917 24 350 0.0 1.6 0.00 0.00 0.00 96 1008.3
20260508003615 24 350 0.0 4.8 0.00 0.00 0.00 96 1008.2
20260508002857 24 350 0.0 4.8 0.00 0.00 0.00 96 1008.3
20260508002341 24 334 0.0 4.8 0.00 0.00 0.00 96 1008.3
20260508001842 24 334 1.6 4.8 0.00 0.00 0.00 96 1008.3
20260508001339 24 334 1.6 4.8 0.00 0.00 0.00 96 1008.3
20260508000858 24 333 1.6 6.4 0.00 0.00 0.00 96 1008.3
20260508000345 25 333 1.6 6.4 0.00 0.00 0.00 96 1008.4
20260507235834 24 333 1.6 9.7 0.00 0.00 0.00 96 1008.3
20260507235605 24 331 1.6 9.7 0.00 0.00 0.00 96 1008.4
20260507234836 25 338 1.6 6.4 0.00 0.00 0.00 96 1008.4
20260507234333 25 338 1.6 6.4 0.00 0.00 0.00 96 1008.4
20260507233856 25 341 1.6 4.8 0.00 0.00 0.00 96 1008.3
20260507233330 25 339 0.0 4.8 0.00 0.00 0.00 96 1008.3
20260507232831 25 339 0.0 3.2 0.00 0.00 0.00 96 1008.3
20260507232537 25 339 0.0 4.8 0.00 0.00 0.00 96 1008.2
20260507231813 25 339 1.6 4.8 0.00 0.00 0.00 96 1008.3
20260507231550 25 8 0.0 3.2 0.00 0.00 0.00 96 1008.3
20260507230810 25 8 0.0 8.0 0.00 0.00 0.00 96 1008.2
20260507230309 24 8 1.6 8.0 0.00 0.00 0.00 96 1008.2
20260507225808 24 8 1.6 8.0 0.00 0.00 0.00 96 1008.2
20260507225312 24 9 1.6 8.0 0.00 0.00 0.00 96 1008.3
20260507224806 24 345 3.2 6.4 0.00 0.00 0.00 96 1008.4
20260507224259 24 0 1.6 6.4 0.00 0.00 0.00 96 1008.4
20260507223759 24 12 0.0 4.8 0.00 0.00 0.00 96 1008.4
20260507223255 24 0 0.0 3.2 0.00 0.00 0.00 96 1008.3
20260507222757 24 0 1.6 4.8 0.00 0.00 0.00 95 1008.4
20260507222256 24 0 1.6 4.8 0.00 0.00 0.00 95 1008.4
20260507221800 24 326 1.6 4.8 0.00 0.00 0.00 95 1008.3
20260507221258 24 8 1.6 8.0 0.00 0.00 0.00 96 1008.2
20260507220752 24 8 3.2 8.0 0.00 0.00 0.00 96 1008.2
20260507220249 24 355 3.2 8.0 0.00 0.00 0.00 96 1008.0
20260507215750 24 12 1.6 8.0 0.00 0.00 0.00 96 1008.0
20260507215228 24 350 1.6 4.8 0.00 0.00 0.00 96 1008.0
20260507214726 24 0 3.2 9.7 0.00 0.00 0.00 96 1008.0
20260507214222 24 5 3.2 9.7 0.00 0.00 0.00 96 1007.9
20260507213721 24 0 1.6 8.0 0.00 0.00 0.00 96 1007.8
20260507213221 24 0 1.6 4.8 0.00 0.00 0.00 96 1007.7
20260507212748 24 0 1.6 4.8 0.00 0.00 0.00 95 1007.7
20260507212216 24 331 0.0 3.2 0.00 0.00 0.00 96 1007.7
20260507211932 24 331 0.0 4.8 0.00 0.00 0.00 96 1007.6
20260507211210 24 331 1.6 4.8 0.00 0.00 0.00 95 1007.5
20260507210712 24 331 1.6 9.7 0.00 0.00 0.00 95 1007.6
20260507210209 24 137 1.6 9.7 0.00 0.00 0.00 95 1007.5
20260507205707 24 0 1.6 6.4 0.00 0.00 0.00 96 1007.6
20260507205208 24 7 1.6 6.4 0.00 0.00 0.00 96 1007.4
20260507204659 24 350 1.6 6.4 0.00 0.00 0.00 96 1007.5
20260507204158 24 0 1.6 8.0 0.00 0.00 0.00 96 1007.5
20260507203701 24 350 3.2 9.7 0.00 0.00 0.00 96 1007.4
20260507203202 24 338 3.2 9.7 0.00 0.00 0.00 95 1007.3
20260507202634 24 355 1.6 8.0 0.00 0.00 0.00 95 1007.3
20260507202328 24 330 3.2 8.0 0.00 0.00 0.00 95 1007.3
20260507201536 24 323 3.2 8.0 0.00 0.00 0.00 95 1007.3
20260507201008 24 345 1.6 8.0 0.00 0.00 0.00 95 1007.4